Temp
-14 -15 -15 -14 -15 -16 -16 -17 -17 -17 -17 -18 -18 -18 -18 -18 -18 -19 -19 -19 -19 -19 -19 -19 -19 -18 -18 -18 -18 -18 -18 -17 -16 -16 -16 -15 -15 -15 -15 -16 -16 -16 -15
-16 -16 -16 -17 -18 -18 -18 -18 -18 -18 -18 -19 -19 -19 -19 -19 -19 -19 -19 -19 -19 -20 -19 -18 -19 -19 -19 -19 -19 -18 -18 -17 -16 -17 -17 -16 -16 -17 -17 -17 -17 -16 -16
-18 -18 -19 -19 -19 -19 -19 -19 -19 -19 -19 -19 -19 -19 -19 -19 -19 -19 -19 -20 -20 -20 -20 -20 -20 -20 -20 -19 -18 -18 -18 -19 -18 -18 -17 -18 -17 -17 -16 -16 -17 -16 -16
-20 -20 -20 -20 -20 -20 -20 -20 -20 -20 -20 -20 -20 -20 -20 -20 -20 -20 -20 -20 -20 -21 -21 -21 -21 -20 -20 -20 -19 -19 -19 -19 -19 -18 -19 -18 -17 -18 -17 -17 -17 -17 -16
-21 -21 -21 -21 -20 -21 -21 -21 -20 -20 -20 -20 -20 -20 -20 -20 -20 -20 -21 -21 -21 -22 -22 -22 -22 -21 -21 -21 -21 -20 -20 -20 -20 -19 -19 -18 -18 -18 -18 -18 -17 -17 -17
-21 -21 -21 -21 -21 -21 -21 -21 -21 -21 -21 -21 -21 -21 -21 -21 -21 -21 -21 -22 -22 -22 -22 -22 -22 -22 -22 -22 -22 -22 -22 -21 -21 -21 -20 -20 -19 -19 -19 -18 -18 -18 -17
-21 -22 -22 -22 -22 -22 -22 -22 -22 -22 -22 -22 -22 -21 -21 -21 -21 -22 -22 -22 -22 -22 -22 -22 -22 -22 -22 -22 -22 -22 -22 -22 -22 -22 -22 -21 -21 -20 -20 -19 -19 -19 -17
-22 -22 -22 -22 -22 -22 -22 -22 -22 -22 -22 -22 -22 -22 -22 -22 -22 -22 -22 -22 -22 -22 -22 -22 -22 -22 -22 -22 -22 -22 -22 -22 -22 -22 -22 -22 -22 -21 -21 -21 -20 -19 -19
-22 -22 -22 -22 -22 -23 -23 -23 -23 -23 -23 -23 -23 -23 -23 -22 -22 -22 -22 -22 -22 -22 -22 -22 -22 -22 -22 -22 -22 -22 -22 -22 -22 -21 -21 -21 -21 -21 -21 -21 -21 -21 -19
-23 -23 -23 -23 -23 -23 -23 -23 -23 -23 -23 -23 -23 -23 -23 -23 -23 -23 -22 -22 -22 -22 -22 -22 -22 -22 -22 -22 -22 -22 -22 -22 -22 -22 -22 -22 -22 -21 -21 -22 -21 -21 -21
-23 -23 -23 -23 -23 -23 -23 -23 -23 -23 -23 -23 -23 -23 -23 -23 -23 -23 -23 -22 -22 -22 -22 -22 -22 -22 -22 -22 -22 -22 -22 -22 -22 -22 -21 -21 -21 -21 -21 -21 -22 -22 -22
-24 -24 -24 -24 -24 -24 -24 -23 -23 -24 -24 -24 -24 -24 -24 -24 -24 -23 -23 -23 -23 -23 -23 -22 -23 -22 -23 -23 -23 -23 -23 -22 -22 -22 -22 -22 -21 -21 -21 -21 -21 -21 -21
-24 -24 -24 -24 -24 -24 -24 -24 -24 -24 -24 -24 -24 -24 -24 -24 -24 -24 -24 -24 -24 -23 -23 -23 -23 -23 -23 -23 -23 -23 -23 -24 -24 -23 -23 -23 -22 -21 -21 -20 -20 -20 -21
-24 -24 -24 -24 -25 -25 -25 -25 -25 -25 -25 -25 -25 -25 -25 -25 -25 -24 -24 -24 -24 -25 -24 -24 -24 -24 -24 -24 -24 -25 -27 -27 -27 -27 -26 -25 -24 -24 -23 -23 -21 -20 -20
-25 -25 -25 -25 -25 -25 -25 -26 -26 -26 -26 -26 -26 -26 -25 -25 -25 -25 -25 -25 -25 -24 -24 -25 -25 -26 -28 -28 -29 -30 -31 -31 -31 -31 -30 -29 -27 -26 -25 -25 -23 -22 -20
-26 -26 -26 -26 -26 -26 -26 -27 -27 -27 -27 -27 -26 -26 -26 -26 -26 -26 -26 -26 -26 -26 -27 -28 -28 -29 -30 -31 -31 -32 -32 -32 -32 -32 -32 -32 -31 -29 -28 -27 -26 -24 -22
-26 -26 -27 -27 -27 -27 -27 -27 -27 -28 -27 -27 -28 -28 -28 -28 -28 -29 -29 -29 -30 -30 -31 -32 -32 -32 -33 -33 -33 -33 -33 -32 -33 -32 -32 -32 -32 -31 -30 -30 -28 -28 -25
-27 -27 -27 -27 -27 -27 -28 -28 -28 -28 -28 -29 -30 -30 -31 -31 -32 -32 -32 -33 -33 -33 -33 -33 -34 -34 -34 -34 -33 -33 -33 -33 -33 -33 -33 -33 -32 -31 -30 -30 -29 -29 -27
-27 -27 -28 -28 -28 -28 -29 -29 -29 -30 -30 -31 -31 -32 -33 -33 -33 -34 -34 -34 -34 -34 -35 -35 -34 -34 -34 -34 -34 -34 -33 -33 -33 -33 -33 -33 -33 -32 -31 -30 -29 -29 -28
-28 -28 -28 -29 -29 -30 -30 -31 -31 -31 -32 -32 -33 -33 -33 -34 -34 -34 -34 -35 -35 -35 -36 -36 -36 -36 -35 -35 -35 -34 -34 -34 -34 -34 -33 -33 -33 -33 -31 -30 -29 -29 -29
-30 -30 -30 -31 -31 -32 -32 -32 -33 -33 -33 -34 -34 -34 -34 -34 -35 -35 -35 -35 -36 -36 -36 -36 -36 -36 -36 -36 -35 -35 -34 -34 -34 -34 -34 -33 -33 -33 -32 -31 -30 -29 -29
-31 -31 -32 -32 -33 -33 -33 -34 -34 -34 -35 -35 -35 -35 -35 -35 -36 -36 -36 -36 -36 -36 -36 -36 -36 -36 -36 -36 -36 -36 -35 -35 -34 -34 -34 -34 -33 -33 -32 -32 -31 -30 -29
-32 -32 -33 -34 -34 -34 -34 -34 -35 -35 -35 -35 -35 -36 -36 -36 -36 -36 -36 -36 -37 -37 -37 -37 -37 -37 -37 -37 -37 -36 -36 -35 -35 -34 -34 -34 -34 -33 -33 -32 -32 -31 -29
-33 -34 -35 -35 -35 -35 -35 -36 -36 -36 -36 -36 -36 -36 -36 -36 -37 -37 -37 -37 -37 -37 -37 -37 -37 -37 -37 -37 -37 -37 -37 -36 -36 -35 -35 -34 -34 -34 -33 -32 -32 -31 -30
-35 -35 -36 -36 -36 -36 -36 -36 -36 -36 -36 -36 -37 -37 -37 -37 -37 -37 -37 -37 -37 -37 -37 -37 -37 -37 -37 -37 -37 -37 -37 -37 -37 -36 -36 -35 -34 -34 -33 -33 -32 -32 -31
-36 -36 -36 -36 -36 -37 -37 -37 -37 -37 -37 -37 -37 -37 -37 -37 -37 -37 -37 -37 -37 -37 -38 -38 -38 -38 -38 -38 -38 -38 -37 -37 -37 -37 -36 -36 -36 -35 -34 -33 -33 -32 -32
Height
5690 5688 5687 5685 5682 5680 5678 5676 5673 5671 5669 5667 5665 5662 5660 5658 5655 5653 5651 5651 5649 5647 5644 5642 5640 5637 5634 5632 5630 5629 5633 5630 5625 5636 5629 5631 5629 5626 5628 5629 5629 5628 5626
5674 5673 5671 5669 5668 5666 5664 5662 5660 5658 5655 5652 5650 5648 5646 5644 5641 5639 5637 5635 5633 5630 5629 5624 5621 5620 5616 5613 5613 5613 5613 5607 5599 5597 5611 5607 5607 5607 5606 5607 5610 5612 5612
5660 5658 5657 5655 5654 5652 5650 5648 5646 5644 5641 5639 5636 5634 5631 5629 5627 5624 5621 5618 5616 5613 5611 5608 5604 5603 5600 5597 5595 5592 5593 5595 5592 5585 5588 5582 5587 5588 5586 5588 5589 5589 5593
5643 5642 5642 5640 5639 5637 5636 5634 5632 5630 5627 5624 5622 5619 5617 5615 5613 5610 5606 5603 5601 5597 5594 5591 5588 5585 5583 5581 5579 5576 5575 5574 5573 5570 5570 5571 5571 5572 5569 5568 5568 5568 5573
5629 5629 5628 5627 5625 5623 5621 5620 5618 5616 5613 5610 5607 5605 5602 5599 5597 5594 5591 5588 5585 5582 5579 5576 5573 5570 5567 5564 5562 5560 5557 5556 5554 5552 5552 5552 5554 5552 5552 5550 5545 5550 5554
5616 5614 5612 5611 5610 5609 5607 5605 5603 5601 5598 5595 5592 5589 5587 5584 5582 5579 5576 5573 5571 5569 5567 5563 5559 5556 5553 5550 5547 5544 5541 5537 5536 5532 5534 5533 5535 5532 5531 5531 5529 5528 5532
5601 5600 5598 5597 5595 5594 5592 5590 5587 5585 5582 5580 5577 5575 5572 5570 5567 5564 5561 5558 5556 5553 5551 5548 5544 5540 5537 5536 5535 5532 5529 5524 5519 5515 5513 5516 5514 5516 5512 5511 5508 5508 5511
5587 5586 5584 5583 5581 5579 5577 5575 5572 5570 5567 5565 5562 5559 5557 5553 5551 5549 5546 5543 5540 5537 5534 5530 5527 5523 5519 5516 5515 5514 5513 5508 5503 5499 5497 5501 5497 5497 5491 5486 5486 5484 5488
5574 5572 5570 5568 5566 5564 5562 5561 5558 5555 5552 5548 5546 5543 5540 5536 5533 5531 5528 5526 5523 5520 5515 5510 5506 5503 5498 5492 5490 5489 5490 5488 5482 5478 5475 5475 5478 5479 5473 5464 5468 5458 5463
5559 5557 5556 5554 5552 5549 5547 5545 5542 5539 5536 5533 5530 5527 5523 5519 5514 5512 5509 5507 5503 5500 5494 5488 5482 5477 5474 5467 5459 5456 5457 5459 5455 5453 5451 5449 5450 5452 5451 5445 5445 5436 5439
5544 5543 5541 5538 5536 5534 5531 5528 5526 5523 5519 5516 5512 5508 5503 5499 5494 5490 5486 5482 5478 5476 5470 5465 5458 5451 5446 5441 5429 5422 5416 5417 5420 5414 5414 5414 5416 5418 5421 5419 5416 5413 5413
5529 5528 5525 5522 5519 5516 5512 5509 5506 5503 5500 5496 5492 5487 5482 5477 5471 5467 5462 5456 5450 5447 5443 5437 5429 5423 5417 5411 5402 5389 5380 5373 5372 5372 5369 5369 5366 5369 5374 5382 5384 5384 5387
5513 5510 5508 5505 5501 5498 5494 5490 5486 5482 5479 5475 5470 5466 5460 5454 5447 5441 5436 5430 5423 5417 5411 5405 5397 5391 5383 5376 5366 5356 5344 5334 5328 5324 5322 5318 5316 5317 5322 5332 5342 5348 5357
5496 5494 5491 5486 5483 5478 5474 5470 5466 5461 5457 5453 5448 5442 5437 5430 5423 5416 5410 5404 5396 5388 5381 5372 5362 5354 5346 5336 5327 5316 5306 5295 5287 5283 5279 5274 5273 5275 5278 5281 5289 5306 5316
5479 5476 5472 5468 5463 5459 5454 5449 5444 5439 5435 5430 5424 5418 5412 5406 5397 5389 5381 5374 5365 5355 5347 5336 5327 5317 5310 5302 5293 5285 5278 5269 5261 5254 5248 5242 5238 5236 5240 5243 5250 5259 5274
5461 5457 5453 5449 5444 5440 5435 5429 5423 5417 5410 5404 5398 5393 5386 5378 5368 5358 5349 5340 5329 5320 5312 5303 5294 5285 5278 5272 5267 5263 5256 5249 5240 5233 5227 5220 5213 5209 5210 5214 5219 5225 5239
5443 5439 5435 5430 5425 5420 5415 5410 5404 5393 5387 5379 5372 5365 5356 5348 5337 5326 5317 5309 5299 5291 5283 5275 5267 5260 5254 5249 5244 5239 5235 5228 5221 5214 5208 5203 5196 5192 5190 5193 5197 5201 5211
5424 5419 5414 5409 5405 5399 5393 5387 5381 5375 5368 5357 5346 5337 5329 5320 5311 5302 5293 5287 5279 5268 5260 5253 5246 5239 5233 5229 5223 5219 5215 5209 5202 5196 5190 5185 5180 5176 5176 5177 5180 5184 5190
5404 5399 5393 5389 5383 5377 5371 5364 5357 5350 5341 5334 5326 5316 5308 5300 5291 5283 5274 5265 5257 5249 5241 5234 5226 5219 5213 5207 5203 5199 5195 5190 5184 5180 5175 5171 5167 5163 5162 5162 5166 5170 5174
5384 5379 5373 5367 5361 5354 5347 5340 5333 5326 5318 5311 5303 5296 5289 5283 5274 5264 5255 5246 5238 5231 5223 5216 5208 5201 5194 5188 5184 5181 5177 5172 5167 5164 5160 5156 5153 5149 5148 5149 5150 5155 5160
5362 5357 5351 5344 5338 5331 5325 5318 5311 5305 5298 5291 5284 5276 5269 5263 5255 5246 5238 5230 5222 5215 5208 5201 5193 5186 5179 5172 5167 5164 5160 5155 5150 5148 5146 5143 5139 5138 5135 5134 5136 5139 5145
5339 5334 5328 5322 5316 5310 5304 5298 5292 5286 5280 5274 5268 5259 5251 5243 5236 5229 5221 5213 5206 5198 5191 5185 5179 5171 5164 5159 5153 5148 5144 5140 5136 5133 5132 5129 5126 5124 5123 5123 5123 5125 5130
5318 5312 5306 5301 5297 5291 5286 5280 5275 5270 5264 5257 5250 5243 5236 5228 5220 5212 5205 5198 5191 5183 5176 5169 5163 5157 5149 5143 5138 5133 5129 5124 5121 5117 5117 5115 5113 5111 5110 5110 5110 5112 5115
5298 5292 5288 5283 5279 5275 5270 5265 5260 5253 5247 5240 5233 5227 5220 5212 5205 5198 5191 5184 5177 5169 5161 5155 5149 5143 5137 5130 5124 5119 5114 5109 5105 5102 5100 5100 5099 5098 5097 5097 5097 5098 5101
5279 5275 5271 5266 5262 5259 5255 5250 5244 5237 5231 5224 5218 5211 5205 5198 5191 5184 5177 5169 5162 5155 5148 5140 5134 5129 5123 5116 5110 5105 5100 5095 5090 5086 5084 5083 5083 5083 5083 5083 5083 5085 5086
5262 5258 5255 5251 5247 5244 5240 5234 5228 5222 5216 5210 5204 5197 5191 5185 5177 5170 5162 5155 5147 5141 5133 5126 5119 5113 5108 5102 5097 5091 5085 5081 5076 5071 5068 5066 5065 5066 5066 5067 5068 5070 5072
Wind_Speed
63 62 60 60 59 57 56 55 54 53 53 53 53 54 55 57 58 59 58 61 61 60 61 65 66 67 66 67 65 69 61 69 71 69 66 64 70 72 66 67 62 60 50
59 58 57 55 54 51 50 49 49 50 51 52 52 53 54 55 57 59 61 61 60 58 61 66 66 63 71 72 69 71 65 54 54 59 61 63 61 65 70 66 63 56 61
55 53 51 49 48 47 48 48 49 49 49 50 50 51 52 53 55 57 58 58 59 60 60 59 61 63 66 62 70 69 60 63 67 70 59 52 53 61 65 63 61 59 60
49 47 46 46 47 47 48 49 49 49 50 51 51 53 54 55 57 57 58 59 58 56 56 55 57 60 61 59 63 69 70 67 66 68 69 71 64 56 54 64 63 59 59
48 47 49 49 49 50 49 49 48 49 49 51 52 52 53 54 56 57 58 57 55 52 52 53 55 59 62 63 63 64 65 68 67 68 68 70 65 70 67 62 59 64 64
51 51 52 52 51 50 50 50 50 50 51 52 52 53 54 55 56 57 56 55 51 50 50 52 54 55 57 58 57 56 59 61 61 64 68 68 66 68 71 78 74 70 69
53 53 53 53 52 51 51 51 52 52 53 54 54 53 54 55 55 55 55 55 55 55 55 56 56 58 61 61 59 58 57 60 64 66 64 63 64 66 72 71 75 74 71
55 56 55 53 52 53 53 54 55 55 56 56 55 55 55 55 56 56 58 58 60 61 62 63 65 67 69 68 67 67 69 70 72 73 74 70 70 70 70 72 75 78 77
54 54 54 55 56 56 56 57 57 58 58 58 57 58 59 61 62 63 63 64 67 70 73 75 75 75 78 81 81 80 79 79 83 84 85 84 81 78 75 78 76 81 78
53 54 55 56 56 57 58 59 59 59 61 62 63 65 66 67 68 69 71 72 75 76 79 82 84 86 86 88 91 93 94 92 92 93 94 96 93 89 86 85 83 83 81
54 55 56 56 57 58 59 61 63 64 65 66 69 71 72 74 76 77 79 81 83 84 87 89 92 96 95 97 101 104 106 106 104 106 104 103 103 100 96 94 92 92 85
57 58 59 61 63 64 65 67 67 69 70 71 73 75 77 79 81 84 86 88 91 92 95 98 101 102 104 106 108 113 115 117 118 121 121 118 116 113 107 101 102 99 91
61 62 63 65 66 68 69 72 74 75 76 76 77 78 80 82 85 88 90 93 96 99 101 103 105 107 111 114 117 121 128 132 131 129 126 124 114 113 109 109 104 107 101
64 64 66 67 70 72 74 75 76 76 77 78 79 81 83 86 89 92 95 98 101 104 107 110 115 118 121 123 119 111 102 100 99 98 97 99 102 99 95 90 97 103 105
64 65 67 69 71 73 74 74 75 76 78 80 83 86 89 92 96 99 102 104 108 112 116 116 110 102 97 94 90 84 79 78 79 79 78 79 82 82 80 80 81 91 99
70 71 71 71 71 72 73 75 78 80 83 87 90 93 95 98 101 103 105 108 108 106 99 94 91 87 83 79 74 68 67 67 68 65 64 65 69 69 68 65 70 77 92
71 71 72 72 72 74 77 80 82 86 89 91 94 96 95 96 96 94 92 89 86 84 81 78 76 73 69 67 65 64 62 61 62 62 61 58 56 59 60 56 58 61 76
72 71 72 74 77 80 82 85 88 89 90 88 88 90 86 82 78 76 76 76 76 76 76 73 71 70 68 66 64 62 61 58 60 59 58 55 52 50 54 52 52 53 61
72 75 78 81 83 84 86 87 88 87 85 86 86 79 74 70 70 71 75 77 74 72 71 70 70 69 66 65 64 63 61 57 58 56 54 51 51 45 47 49 49 51 54
77 79 82 83 85 86 84 81 81 81 81 78 72 69 68 67 68 71 71 67 65 64 63 62 61 60 60 63 62 59 57 56 57 54 51 49 48 47 42 47 48 51 53
79 82 82 81 79 79 79 76 75 72 67 64 64 65 65 66 67 66 65 62 61 60 59 58 57 56 55 52 50 54 54 53 55 52 48 47 45 44 42 42 47 50 54
77 77 77 75 73 71 70 67 64 61 60 61 62 62 64 65 64 62 60 60 59 59 58 56 56 56 54 52 49 46 48 50 52 52 49 47 45 42 42 40 40 47 50
74 72 70 67 64 62 61 60 57 57 58 60 61 61 61 60 60 59 59 58 56 55 54 53 52 52 53 51 50 49 46 46 47 49 48 47 45 43 40 39 39 39 47
66 64 61 57 56 55 55 54 55 57 59 58 58 58 58 57 56 54 53 52 53 54 54 52 51 50 50 50 49 48 48 47 48 47 46 46 46 44 41 40 39 39 41
58 56 52 52 50 50 52 54 55 57 55 56 56 56 54 53 53 54 55 54 53 54 54 54 53 52 51 51 51 50 48 48 49 50 49 45 45 45 43 41 40 39 41
54 50 48 46 47 50 52 52 53 53 53 53 52 51 51 53 54 54 54 53 53 53 53 53 54 53 52 51 50 50 50 49 50 51 52 51 47 45 45 44 42 41 41
Wind_Direction
282 283 283 282 279 278 278 279 280 280 279 279 279 278 277 277 277 277 277 278 277 279 281 278 274 275 276 278 283 277 275 275 273 275 275 274 274 275 276 276 278 274 272
281 280 278 277 277 278 279 278 278 278 278 279 280 280 280 280 279 281 278 278 279 284 281 272 270 275 270 274 277 279 271 271 284 274 269 273 274 277 274 277 276 277 283
276 275 274 275 276 276 277 279 280 281 282 282 281 280 280 281 280 281 283 284 284 283 280 280 279 281 284 271 265 277 265 274 266 275 264 285 268 273 270 272 273 273 274
277 277 277 277 278 279 280 280 281 282 281 281 281 281 281 281 281 282 283 283 283 283 282 281 277 278 277 276 277 279 278 276 277 281 282 280 268 280 274 271 269 270 271
276 277 278 279 279 280 282 282 281 281 280 280 281 280 281 281 282 283 284 286 286 287 284 282 279 278 279 278 275 275 277 278 279 279 279 278 280 280 275 269 269 272 270
279 279 279 280 282 283 282 282 282 282 281 280 281 280 280 280 282 283 285 286 286 285 284 285 286 285 285 285 285 286 284 284 284 283 279 279 277 279 278 273 274 268 272
279 280 281 282 282 282 282 282 282 282 280 279 279 278 277 277 279 280 282 283 283 284 283 282 283 283 283 280 279 278 280 282 285 285 286 286 285 281 278 275 275 272 266
279 281 282 281 281 281 281 281 281 280 280 278 278 277 274 275 276 278 279 280 279 279 279 279 280 280 281 278 276 276 278 277 276 277 277 280 282 283 283 281 276 274 271
277 279 280 281 281 281 282 282 282 281 279 277 276 275 274 274 275 276 277 278 280 282 282 282 281 281 280 280 277 273 274 275 274 274 277 279 279 275 275 276 278 278 271
277 278 279 280 281 282 282 282 282 282 280 278 277 277 276 275 276 277 278 280 281 282 285 287 287 286 283 282 281 279 277 276 275 274 275 276 277 276 271 272 273 274 273
277 278 280 281 282 282 282 282 282 282 281 280 279 279 279 279 280 281 283 284 285 286 286 285 285 286 284 283 283 283 283 282 279 279 278 276 273 271 269 268 268 266 268
278 280 281 282 283 283 283 283 283 282 283 283 283 283 284 284 285 286 286 287 287 286 285 285 285 286 286 286 285 285 285 284 283 282 281 281 279 275 270 265 261 260 260
279 280 282 284 285 285 286 285 284 284 284 285 285 286 286 287 287 288 289 289 289 290 289 289 288 288 288 287 287 286 286 284 284 284 283 283 281 277 269 261 256 257 256
278 281 285 287 287 286 285 284 285 286 287 286 287 287 288 289 290 290 290 290 290 291 292 292 292 291 292 290 288 287 286 286 285 283 282 280 278 274 271 265 253 247 251
280 282 283 284 284 285 286 286 286 287 287 288 289 290 290 291 292 292 293 294 295 295 296 297 295 292 290 289 288 289 288 288 289 289 287 284 281 277 269 265 258 243 239
277 278 281 285 284 284 286 288 288 289 291 292 292 293 294 295 296 297 298 299 299 298 296 294 293 292 291 290 288 288 289 291 293 289 287 289 283 277 270 264 255 250 234
278 282 281 282 284 286 287 289 290 292 292 294 294 295 297 298 300 300 300 300 299 299 299 298 297 295 292 290 289 290 290 292 290 291 291 293 287 278 272 269 261 254 243
278 281 283 285 287 288 288 289 290 291 292 295 297 299 300 300 301 301 301 302 302 301 299 298 297 295 292 289 289 290 291 292 290 292 292 294 292 282 267 260 264 259 248
282 284 285 285 286 288 289 290 292 294 295 297 298 298 298 299 300 301 304 304 302 300 298 297 296 294 293 293 292 291 290 289 289 291 290 290 292 287 272 260 255 254 248
282 283 284 286 287 288 291 292 294 296 297 298 297 297 297 299 300 303 304 303 302 302 301 301 301 301 299 294 291 291 290 288 287 290 289 288 289 290 280 263 253 252 247
284 285 286 289 290 291 294 294 295 297 296 297 297 298 299 300 302 303 302 302 302 302 302 302 303 302 301 300 297 292 287 286 285 286 288 286 284 285 285 275 258 250 248
288 288 289 290 291 292 293 294 295 295 296 298 299 299 301 303 304 303 304 304 304 304 303 303 303 302 301 301 299 296 291 285 284 284 283 285 283 281 281 279 270 254 245
289 289 290 291 291 291 292 293 293 296 299 300 300 301 303 303 304 305 305 305 305 306 306 306 305 304 304 303 302 299 296 291 287 283 280 279 280 280 277 275 273 264 250
289 289 290 289 290 290 291 293 296 300 301 301 303 304 305 305 305 306 306 306 306 306 305 305 305 305 304 304 304 302 299 295 291 288 284 277 274 274 274 271 269 265 255
289 290 289 289 289 290 294 296 297 301 302 304 305 306 306 306 305 305 305 305 305 305 305 305 305 304 303 301 301 301 300 299 293 288 287 283 276 271 268 268 265 261 257
290 290 288 288 292 295 295 296 300 301 303 305 305 305 305 305 306 307 308 308 308 308 307 306 305 304 303 302 301 300 297 298 297 293 286 284 280 274 267 263 262 259 253